Time,TemperatureF,DewpointF,PressureIn,WindDirection,WindDirectionDegrees,WindSpeedMPH,WindSpeedGustMPH,Humidity,HourlyPrecipIn,Conditions,Clouds,dailyrainin,SoftwareType,DateUTC
2013-02-25 00:02:00,26.0,22.0,29.98,West,271,0.0,-999.0,83,-99.99,,,-99.99,,2013-02-25 06:02:00,
2013-02-25 00:11:00,26.0,22.0,29.98,West,271,0.0,-999.0,83,-99.99,,,-99.99,,2013-02-25 06:11:00,
2013-02-25 00:21:00,27.0,23.0,29.98,West,271,0.0,-999.0,83,-99.99,,,-99.99,,2013-02-25 06:21:00,
2013-02-25 00:31:00,27.0,23.0,29.97,West,271,0.0,-999.0,83,-99.99,,,-99.99,,2013-02-25 06:31:00,
2013-02-25 00:42:00,27.0,23.0,29.97,West,271,0.0,-999.0,83,-99.99,,,-99.99,,2013-02-25 06:42:00,
2013-02-25 00:52:00,27.0,23.0,29.96,WSW,255,0.0,-999.0,83,-99.99,,,-99.99,,2013-02-25 06:52:00,
2013-02-25 01:01:00,27.0,22.0,29.96,South,190,4.0,-999.0,82,-99.99,,,-99.99,,2013-02-25 07:01:00,
2013-02-25 01:11:00,27.0,22.0,29.96,South,182,5.0,-999.0,82,-99.99,,,-99.99,,2013-02-25 07:11:00,
2013-02-25 01:21:00,27.0,22.0,29.96,South,182,5.0,-999.0,82,-99.99,,,-99.99,,2013-02-25 07:21:00,
2013-02-25 01:31:00,27.0,22.0,29.96,South,182,3.0,-999.0,82,-99.99,,,-99.99,,2013-02-25 07:31:00,
2013-02-25 01:41:00,27.0,22.0,29.96,South,182,3.0,-999.0,82,-99.99,,,-99.99,,2013-02-25 07:41:00,
2013-02-25 01:52:00,27.0,23.0,29.96,South,182,3.0,-999.0,83,-99.99,,,-99.99,,2013-02-25 07:52:00,
2013-02-25 02:01:00,27.0,23.0,29.96,South,189,4.0,-999.0,83,-99.99,,,-99.99,,2013-02-25 08:01:00,
2013-02-25 02:11:00,27.0,23.0,29.96,South,189,4.0,-999.0,83,-99.99,,,-99.99,,2013-02-25 08:11:00,
2013-02-25 02:21:00,27.0,22.0,29.96,SSW,192,3.0,-999.0,82,-99.99,,,-99.99,,2013-02-25 08:21:00,
2013-02-25 02:31:00,27.0,22.0,29.96,SSW,192,1.0,-999.0,82,-99.99,,,-99.99,,2013-02-25 08:31:00,
2013-02-25 02:41:00,27.0,22.0,29.96,SSW,192,1.0,-999.0,82,-99.99,,,-99.99,,2013-02-25 08:41:00,
2013-02-25 02:52:00,26.0,22.0,29.96,SSW,192,2.0,-999.0,83,-99.99,,,-99.99,,2013-02-25 08:52:00,
2013-02-25 03:01:00,25.0,21.0,29.95,SSW,192,2.0,-999.0,85,-99.99,,,-99.99,,2013-02-25 09:01:00,
2013-02-25 03:12:00,25.0,21.0,29.95,SSW,192,2.0,-999.0,85,-99.99,,,-99.99,,2013-02-25 09:12:00,
2013-02-25 03:21:00,25.0,21.0,29.94,SSW,192,1.0,-999.0,85,-99.99,,,-99.99,,2013-02-25 09:21:00,
2013-02-25 03:31:00,25.0,21.0,29.94,SSW,192,0.0,-999.0,86,-99.99,,,-99.99,,2013-02-25 09:31:00,
2013-02-25 03:41:00,25.0,21.0,29.94,SSW,192,0.0,-999.0,86,-99.99,,,-99.99,,2013-02-25 09:41:00,
2013-02-25 03:52:00,25.0,21.0,29.94,SSW,192,0.0,-999.0,86,-99.99,,,-99.99,,2013-02-25 09:52:00,
2013-02-25 04:01:00,25.0,21.0,29.93,SSW,192,0.0,-999.0,86,-99.99,,,-99.99,,2013-02-25 10:01:00,
2013-02-25 04:11:00,25.0,21.0,29.93,SSW,192,0.0,-999.0,86,-99.99,,,-99.99,,2013-02-25 10:11:00,
2013-02-25 04:21:00,25.0,21.0,29.93,South,189,1.0,-999.0,85,-99.99,,,-99.99,,2013-02-25 10:21:00,
2013-02-25 04:31:00,26.0,22.0,29.92,South,189,0.0,-999.0,84,-99.99,,,-99.99,,2013-02-25 10:31:00,
2013-02-25 04:42:00,26.0,22.0,29.92,South,189,0.0,-999.0,84,-99.99,,,-99.99,,2013-02-25 10:42:00,
2013-02-25 04:52:00,27.0,22.0,29.92,SSW,200,4.0,-999.0,82,-99.99,,,-99.99,,2013-02-25 10:52:00,
2013-02-25 05:01:00,28.0,23.0,29.91,SSW,209,8.0,-999.0,80,-99.99,,,-99.99,,2013-02-25 11:01:00,
2013-02-25 05:11:00,28.0,23.0,29.91,SSW,209,8.0,-999.0,80,-99.99,,,-99.99,,2013-02-25 11:11:00,
2013-02-25 05:21:00,28.0,22.0,29.92,SW,226,7.0,-999.0,79,-99.99,,,-99.99,,2013-02-25 11:21:00,
2013-02-25 05:32:00,28.0,22.0,29.93,SW,224,5.0,-999.0,79,-99.99,,,-99.99,,2013-02-25 11:32:00,
2013-02-25 05:42:00,28.0,22.0,29.93,SW,224,5.0,-999.0,79,-99.99,,,-99.99,,2013-02-25 11:42:00,
2013-02-25 05:52:00,27.0,21.0,29.93,SW,224,0.0,-999.0,79,-99.99,,,-99.99,,2013-02-25 11:52:00,
2013-02-25 06:02:00,26.0,21.0,29.93,SW,224,0.0,-999.0,80,-99.99,,,-99.99,,2013-02-25 12:02:00,
2013-02-25 06:11:00,26.0,21.0,29.93,SW,224,0.0,-999.0,80,-99.99,,,-99.99,,2013-02-25 12:11:00,
2013-02-25 06:21:00,26.0,21.0,29.92,SW,226,2.0,-999.0,80,-99.99,,,-99.99,,2013-02-25 12:21:00,
2013-02-25 06:32:00,26.0,20.0,29.92,SW,226,0.0,-999.0,78,-99.99,,,-99.99,,2013-02-25 12:32:00,
2013-02-25 06:42:00,26.0,20.0,29.92,SW,226,0.0,-999.0,78,-99.99,,,-99.99,,2013-02-25 12:42:00,
2013-02-25 06:55:00,25.0,20.0,29.92,SW,226,0.0,-999.0,80,-99.99,,,-99.99,,2013-02-25 12:55:00,
2013-02-25 07:02:00,24.0,19.0,29.91,SW,226,0.0,-999.0,82,-99.99,,,-99.99,,2013-02-25 13:02:00,
2013-02-25 07:12:00,24.0,19.0,29.91,SW,226,0.0,-999.0,82,-99.99,,,-99.99,,2013-02-25 13:12:00,
2013-02-25 07:22:00,24.0,20.0,29.91,SW,226,0.0,-999.0,83,-99.99,,,-99.99,,2013-02-25 13:22:00,
2013-02-25 07:32:00,24.0,20.0,29.91,SW,226,0.0,-999.0,84,-99.99,,,-99.99,,2013-02-25 13:32:00,
2013-02-25 07:42:00,24.0,20.0,29.91,SW,226,0.0,-999.0,84,-99.99,,,-99.99,,2013-02-25 13:42:00,
2013-02-25 07:52:00,25.0,21.0,29.91,SW,226,0.0,-999.0,83,-99.99,,,-99.99,,2013-02-25 13:52:00,
2013-02-25 08:03:00,24.0,19.0,29.90,SW,226,0.0,-999.0,82,-99.99,,,-99.99,,2013-02-25 14:03:00,
2013-02-25 08:17:00,24.0,19.0,29.90,SW,226,0.0,-999.0,82,-99.99,,,-99.99,,2013-02-25 14:17:00,
2013-02-25 08:32:00,23.0,19.0,29.89,SW,226,0.0,-999.0,86,-99.99,,,-99.99,,2013-02-25 14:32:00,
2013-02-25 08:42:00,23.0,19.0,29.89,SW,226,0.0,-999.0,86,-99.99,,,-99.99,,2013-02-25 14:42:00,
2013-02-25 08:52:00,24.0,21.0,29.89,SW,226,0.0,-999.0,88,-99.99,,,-99.99,,2013-02-25 14:52:00,
2013-02-25 09:02:00,24.0,21.0,29.89,SW,226,0.0,-999.0,88,-99.99,,,-99.99,,2013-02-25 15:02:00,
2013-02-25 09:11:00,24.0,21.0,29.89,SW,226,0.0,-999.0,88,-99.99,,,-99.99,,2013-02-25 15:11:00,
2013-02-25 09:21:00,26.0,23.0,29.89,SW,226,0.0,-999.0,89,-99.99,,,-99.99,,2013-02-25 15:21:00,
2013-02-25 09:32:00,27.0,23.0,29.89,SW,226,1.0,-999.0,86,-99.99,,,-99.99,,2013-02-25 15:32:00,
2013-02-25 09:41:00,27.0,23.0,29.89,SW,226,1.0,-999.0,86,-99.99,,,-99.99,,2013-02-25 15:41:00,
2013-02-25 09:52:00,28.0,24.0,29.89,SW,226,0.0,-999.0,85,-99.99,,,-99.99,,2013-02-25 15:52:00,
2013-02-25 10:02:00,30.0,25.0,29.88,SW,226,0.0,-999.0,83,-99.99,,,-99.99,,2013-02-25 16:02:00,
2013-02-25 10:11:00,30.0,25.0,29.88,SW,226,0.0,-999.0,83,-99.99,,,-99.99,,2013-02-25 16:11:00,
2013-02-25 10:21:00,31.0,25.0,29.89,SW,226,1.0,-999.0,77,-99.99,,,-99.99,,2013-02-25 16:21:00,
2013-02-25 10:32:00,32.0,25.0,29.88,SW,226,1.0,-999.0,76,-99.99,,,-99.99,,2013-02-25 16:32:00,
2013-02-25 10:42:00,32.0,25.0,29.88,SW,226,1.0,-999.0,76,-99.99,,,-99.99,,2013-02-25 16:42:00,
2013-02-25 10:52:00,33.0,26.0,29.89,SW,226,1.0,-999.0,76,-99.99,,,-99.99,,2013-02-25 16:52:00,
2013-02-25 11:01:00,34.0,27.0,29.88,SW,225,3.0,-999.0,75,-99.99,,,-99.99,,2013-02-25 17:01:00,
2013-02-25 11:11:00,34.0,27.0,29.88,SW,225,3.0,-999.0,75,-99.99,,,-99.99,,2013-02-25 17:11:00,
2013-02-25 11:21:00,34.0,27.0,29.88,SW,225,3.0,-999.0,75,-99.99,,,-99.99,,2013-02-25 17:21:00,
2013-02-25 11:31:00,35.0,28.0,29.87,SSW,207,5.0,-999.0,75,-99.99,,,-99.99,,2013-02-25 17:31:00,
2013-02-25 11:41:00,35.0,28.0,29.87,SSW,207,5.0,-999.0,75,-99.99,,,-99.99,,2013-02-25 17:41:00,
2013-02-25 11:52:00,36.0,28.0,29.87,SSW,206,5.0,-999.0,71,-99.99,,,-99.99,,2013-02-25 17:52:00,
2013-02-25 12:01:00,37.0,27.0,29.87,SW,226,6.0,-999.0,67,-99.99,,,-99.99,,2013-02-25 18:01:00,
2013-02-25 12:12:00,37.0,27.0,29.87,SW,226,6.0,-999.0,67,-99.99,,,-99.99,,2013-02-25 18:12:00,
2013-02-25 12:21:00,37.0,26.0,29.86,SW,223,7.0,-999.0,64,-99.99,,,-99.99,,2013-02-25 18:21:00,
2013-02-25 12:32:00,38.0,28.0,29.85,SW,225,7.0,-999.0,66,-99.99,,,-99.99,,2013-02-25 18:32:00,
2013-02-25 12:41:00,38.0,28.0,29.85,SW,225,7.0,-999.0,66,-99.99,,,-99.99,,2013-02-25 18:41:00,
2013-02-25 12:52:00,38.0,27.0,29.85,SW,225,7.0,-999.0,65,-99.99,,,-99.99,,2013-02-25 18:52:00,
2013-02-25 13:01:00,39.0,28.0,29.83,SW,222,7.0,-999.0,64,-99.99,,,-99.99,,2013-02-25 19:01:00,
2013-02-25 13:11:00,39.0,28.0,29.83,SW,222,7.0,-999.0,64,-99.99,,,-99.99,,2013-02-25 19:11:00,
2013-02-25 13:21:00,39.0,28.0,29.83,SW,224,8.0,-999.0,64,-99.99,,,-99.99,,2013-02-25 19:21:00,
2013-02-25 13:31:00,40.0,28.0,29.82,SW,223,4.0,-999.0,62,-99.99,,,-99.99,,2013-02-25 19:31:00,
2013-02-25 13:41:00,40.0,28.0,29.82,SW,223,4.0,-999.0,62,-99.99,,,-99.99,,2013-02-25 19:41:00,
2013-02-25 13:52:00,41.0,29.0,29.82,WSW,237,6.0,-999.0,62,-99.99,,,-99.99,,2013-02-25 19:52:00,
2013-02-25 14:01:00,41.0,29.0,29.81,SW,223,5.0,-999.0,63,-99.99,,,-99.99,,2013-02-25 20:01:00,
2013-02-25 14:11:00,41.0,29.0,29.81,SW,223,5.0,-999.0,63,-99.99,,,-99.99,,2013-02-25 20:11:00,
2013-02-25 14:21:00,42.0,31.0,29.82,SW,215,4.0,-999.0,64,-99.99,,,-99.99,,2013-02-25 20:21:00,
2013-02-25 14:31:00,42.0,29.0,29.81,SW,225,5.0,-999.0,60,-99.99,,,-99.99,,2013-02-25 20:31:00,
2013-02-25 14:41:00,42.0,29.0,29.81,SW,225,5.0,-999.0,60,-99.99,,,-99.99,,2013-02-25 20:41:00,
2013-02-25 14:52:00,43.0,31.0,29.81,SW,223,6.0,-999.0,62,-99.99,,,-99.99,,2013-02-25 20:52:00,
2013-02-25 15:01:00,43.0,31.0,29.80,SW,223,6.0,-999.0,63,-99.99,,,-99.99,,2013-02-25 21:01:00,
2013-02-25 15:11:00,43.0,31.0,29.80,SW,223,6.0,-999.0,63,-99.99,,,-99.99,,2013-02-25 21:11:00,
2013-02-25 15:21:00,43.0,31.0,29.80,WSW,237,3.0,-999.0,62,-99.99,,,-99.99,,2013-02-25 21:21:00,
2013-02-25 15:31:00,44.0,31.0,29.80,SW,234,2.0,-999.0,60,-99.99,,,-99.99,,2013-02-25 21:31:00,
2013-02-25 15:42:00,44.0,31.0,29.80,SW,234,2.0,-999.0,60,-99.99,,,-99.99,,2013-02-25 21:42:00,
2013-02-25 15:52:00,44.0,31.0,29.80,SW,231,3.0,-999.0,59,-99.99,,,-99.99,,2013-02-25 21:52:00,
2013-02-25 16:01:00,44.0,30.0,29.80,SW,228,1.0,-999.0,57,-99.99,,,-99.99,,2013-02-25 22:01:00,
2013-02-25 16:11:00,44.0,30.0,29.80,SW,228,1.0,-999.0,57,-99.99,,,-99.99,,2013-02-25 22:11:00,
2013-02-25 16:21:00,45.0,32.0,29.79,SW,228,0.0,-999.0,59,-99.99,,,-99.99,,2013-02-25 22:21:00,
2013-02-25 16:32:00,45.0,31.0,29.79,SW,228,0.0,-999.0,58,-99.99,,,-99.99,,2013-02-25 22:32:00,
2013-02-25 16:42:00,45.0,31.0,29.79,SW,228,0.0,-999.0,58,-99.99,,,-99.99,,2013-02-25 22:42:00,
2013-02-25 16:52:00,46.0,32.0,29.79,SW,228,0.0,-999.0,57,-99.99,,,-99.99,,2013-02-25 22:52:00,
2013-02-25 17:01:00,46.0,31.0,29.79,SW,228,0.0,-999.0,55,-99.99,,,-99.99,,2013-02-25 23:01:00,
2013-02-25 17:11:00,46.0,31.0,29.79,SW,228,0.0,-999.0,55,-99.99,,,-99.99,,2013-02-25 23:11:00,
2013-02-25 17:22:00,46.0,33.0,29.79,SW,228,0.0,-999.0,61,-99.99,,,-99.99,,2013-02-25 23:22:00,
2013-02-25 17:31:00,44.0,33.0,29.81,SW,228,0.0,-999.0,64,-99.99,,,-99.99,,2013-02-25 23:31:00,
2013-02-25 17:41:00,44.0,33.0,29.81,SW,228,0.0,-999.0,64,-99.99,,,-99.99,,2013-02-25 23:41:00,
2013-02-25 17:52:00,43.0,32.0,29.81,SW,228,0.0,-999.0,66,-99.99,,,-99.99,,2013-02-25 23:52:00,
2013-02-25 18:01:00,42.0,31.0,29.81,SW,228,0.0,-999.0,65,-99.99,,,-99.99,,2013-02-26 00:01:00,
2013-02-25 18:12:00,42.0,31.0,29.81,SW,228,0.0,-999.0,65,-99.99,,,-99.99,,2013-02-26 00:12:00,
2013-02-25 18:22:00,41.0,31.0,29.81,SW,228,0.0,-999.0,66,-99.99,,,-99.99,,2013-02-26 00:22:00,
2013-02-25 18:32:00,40.0,30.0,29.81,SW,228,0.0,-999.0,68,-99.99,,,-99.99,,2013-02-26 00:32:00,
2013-02-25 18:42:00,40.0,30.0,29.81,SW,228,0.0,-999.0,68,-99.99,,,-99.99,,2013-02-26 00:42:00,
2013-02-25 18:52:00,38.0,30.0,29.81,SW,228,0.0,-999.0,72,-99.99,,,-99.99,,2013-02-26 00:52:00,
2013-02-25 19:02:00,37.0,29.0,29.81,SW,228,0.0,-999.0,73,-99.99,,,-99.99,,2013-02-26 01:02:00,
2013-02-25 19:11:00,37.0,29.0,29.81,SW,228,0.0,-999.0,73,-99.99,,,-99.99,,2013-02-26 01:11:00,
2013-02-25 19:21:00,36.0,29.0,29.81,SW,228,0.0,-999.0,76,-99.99,,,-99.99,,2013-02-26 01:21:00,
2013-02-25 19:31:00,35.0,29.0,29.80,SW,228,0.0,-999.0,77,-99.99,,,-99.99,,2013-02-26 01:31:00,
2013-02-25 19:41:00,35.0,29.0,29.80,SW,228,0.0,-999.0,77,-99.99,,,-99.99,,2013-02-26 01:41:00,
2013-02-25 19:52:00,34.0,28.0,29.80,SW,228,0.0,-999.0,79,-99.99,,,-99.99,,2013-02-26 01:52:00,
2013-02-25 20:01:00,33.0,28.0,29.80,SW,228,0.0,-999.0,80,-99.99,,,-99.99,,2013-02-26 02:01:00,
2013-02-25 20:11:00,33.0,28.0,29.80,SW,228,0.0,-999.0,80,-99.99,,,-99.99,,2013-02-26 02:11:00,
2013-02-25 20:21:00,33.0,28.0,29.80,SW,228,0.0,-999.0,81,-99.99,,,-99.99,,2013-02-26 02:21:00,
2013-02-25 20:32:00,32.0,27.0,29.80,SW,228,0.0,-999.0,82,-99.99,,,-99.99,,2013-02-26 02:32:00,
2013-02-25 20:42:00,32.0,27.0,29.80,SW,228,0.0,-999.0,82,-99.99,,,-99.99,,2013-02-26 02:42:00,
2013-02-25 20:52:00,31.0,27.0,29.80,SW,228,0.0,-999.0,84,-99.99,,,-99.99,,2013-02-26 02:52:00,
2013-02-25 21:02:00,30.0,26.0,29.80,SW,228,0.0,-999.0,85,-99.99,,,-99.99,,2013-02-26 03:02:00,
2013-02-25 21:11:00,30.0,26.0,29.80,SW,228,0.0,-999.0,85,-99.99,,,-99.99,,2013-02-26 03:11:00,
2013-02-25 21:21:00,29.0,26.0,29.80,SW,228,0.0,-999.0,87,-99.99,,,-99.99,,2013-02-26 03:21:00,
2013-02-25 21:32:00,28.0,25.0,29.80,SW,228,0.0,-999.0,88,-99.99,,,-99.99,,2013-02-26 03:32:00,
2013-02-25 21:42:00,28.0,25.0,29.80,SW,228,0.0,-999.0,88,-99.99,,,-99.99,,2013-02-26 03:42:00,
2013-02-25 21:52:00,28.0,25.0,29.80,SW,228,0.0,-999.0,88,-99.99,,,-99.99,,2013-02-26 03:52:00,
2013-02-25 22:01:00,28.0,25.0,29.80,SW,228,0.0,-999.0,89,-99.99,,,-99.99,,2013-02-26 04:01:00,
2013-02-25 22:11:00,28.0,25.0,29.80,SW,228,0.0,-999.0,89,-99.99,,,-99.99,,2013-02-26 04:11:00,
2013-02-25 22:21:00,27.0,24.0,29.80,SW,228,0.0,-999.0,89,-99.99,,,-99.99,,2013-02-26 04:21:00,
2013-02-25 22:32:00,27.0,24.0,29.81,SW,228,0.0,-999.0,90,-99.99,,,-99.99,,2013-02-26 04:32:00,
2013-02-25 22:42:00,27.0,24.0,29.81,SW,228,0.0,-999.0,90,-99.99,,,-99.99,,2013-02-26 04:42:00,
2013-02-25 22:52:00,27.0,24.0,29.80,SW,228,0.0,-999.0,90,-99.99,,,-99.99,,2013-02-26 04:52:00,
2013-02-25 23:01:00,26.0,23.0,29.80,SW,228,0.0,-999.0,90,-99.99,,,-99.99,,2013-02-26 05:01:00,
2013-02-25 23:11:00,26.0,23.0,29.80,SW,228,0.0,-999.0,90,-99.99,,,-99.99,,2013-02-26 05:11:00,
2013-02-25 23:21:00,26.0,24.0,29.81,SW,228,0.0,-999.0,91,-99.99,,,-99.99,,2013-02-26 05:21:00,
2013-02-25 23:31:00,26.0,24.0,29.81,SW,228,0.0,-999.0,91,-99.99,,,-99.99,,2013-02-26 05:31:00,
2013-02-25 23:43:00,26.0,24.0,29.81,SW,228,0.0,-999.0,91,-99.99,,,-99.99,,2013-02-26 05:43:00,
2013-02-25 23:52:00,26.0,24.0,29.81,SW,228,0.0,-999.0,91,-99.99,,,-99.99,,2013-02-26 05:52:00,